Regional Weather Roundup
Issued by NWS State College, PA

Home | Current Version | Previous Version | Text Only | Print | Product List | Glossary On
Versions: 1 2 3 4 5 6 7 8 9 10 11 12 13 14 15 16 17 18 19 20 21 22 23 24 25 26 27 28 29 30 31 32 33 34 35 36 37 38 39 40 41 42 43 44 45 46 47 48 49 50
000
ASUS41 KCTP 020703
RWRCTP

REGIONAL WEATHER ROUNDUP
NATIONAL WEATHER SERVICE STATE COLLEGE PA
200 AM EST MON MAR 02 2015

Note: "fair" indicates few or no clouds below 12,000 feet with no
significant weather and/or obstructions to visibility.

* = STATION THAT DOES NOT REPORT PRECIPITATION /E.G. RAIN...SNOW...ETC/
    THUNDER OR FOG.

PAZ002>004-007>009-013>016-020>023-029>032-020800-
WESTERN PENNSYLVANIA

CITY           SKY/WX    TMP DP  RH WIND       PRES   REMARKS
ERIE           CLOUDY    21  17  84 W10G21    30.21R FOG     WCI  10
MEADVILLE        N/A     21  17  84 W12       30.16R WCI   9
FRANKLIN*      CLOUDY    23  18  80 W13G22    30.15F WCI  11
NEW CASTLE     CLOUDY    26  23  88 W6        30.20S
BEAVER COUNTY  NOT AVBL
BUTLER*        CLOUDY    28  27  93 NW9       30.18R
PITTSBURGH INT FLURRIES  31  28  89 NW16      30.17R
PITTSBURGH     CLOUDY    32  28  85 W12G20    30.15S FOG
INDIANA*       CLOUDY    32  32 100 W12       30.16R FOG
LATROBE        LGT RAIN  32  32 100 SW9G16    30.17R
WASHINGTON CO* CLOUDY    32  30  93 W12       30.19S
$$

PAZ004>006-010>012-017>019-024>028-033>037-041-042-045-046-049>053-020800-
CENTRAL PENNSYLVANIA

CITY           SKY/WX    TMP DP  RH WIND       PRES   REMARKS
BRADFORD       MIX PCPN  24  19  81 W12       30.04S WCI  13
DUBOIS         CLOUDY    28  26  92 W15G23    30.07R FOG
CLEARFIELD     MIX PCPN  32  28  85 W10G17    30.07S
JOHNSTOWN      LGT SNOW  31  30  96 W12       30.06R FOG
ALTOONA        CLOUDY    36  31  82 NW13      30.06F
STATE COLLEGE  CLOUDY    28  27  95 CALM      30.07S FOG
WILLIAMSPORT   CLOUDY    26  22  84 CALM      30.11S
SELINSGROVE    CLOUDY    27  24  89 S3        30.12R FOG
FT INDIANTOWN  CLOUDY    25  23  94 SW2       30.12F FOG
CAPITAL CITY   CLOUDY    27  24  89 CALM      30.13F FOG
HARRISBURG     CLOUDY    26  24  92 CALM      30.13S FOG
YORK           CLOUDY    31  29  92 W3        30.11F
$$

PAZ038>040-043-044-047-048-054-055-060>062-067>071-020800-
EASTERN PENNSYLVANIA

CITY           SKY/WX    TMP DP  RH WIND       PRES   REMARKS
SCRANTON       LGT SNOW  26  21  81 SW6       30.06S
MOUNT POCONO   CLOUDY    27  24  89 W10       29.98F FOG
ALLENTOWN      CLOUDY    25  21  85 W3        30.11F FOG
QUAKERTOWN*    CLOUDY    25  25 100 CALM      30.10F
READING        CLOUDY    25  22  88 CALM      30.12S FOG
LANCASTER      CLOUDY    30  29  96 W6        30.12S FOG
COATESVILLE    CLOUDY    32  32 100 W6        30.10F FOG
POTTSTOWN      CLOUDY    27  27 100 CALM      30.13S FOG
BLUE BELL      CLOUDY    32  32 100 CALM      30.10F
DOYLESTOWN     CLOUDY    26  26 100 CALM      30.09F FOG
WILLOW GROVE   NOT AVBL
NORTH PHILA    CLOUDY    33  29  85 W7        30.13F FOG
PHILADELPHIA   CLOUDY    32  30  92 SW9       30.13F FOG
$$


USA.gov is the U.S. government's official web portal to all federal, state and local government web resources and services.